Wind_Speed
10 11 11 11 10 10 10 9 9 9 10 11 11 12 12 12 12 12 12 13 14 14 14 15 15 15 16 16 18 19 19 19 19 20 21 22 22 22
11 11 11 10 10 10 10 9 9 9 10 10 11 11 11 12 12 12 13 13 14 15 15 15 16 16 17 17 18 19 21 22 22 23 23 24 24 25
12 11 11 10 10 10 10 10 10 10 10 11 11 11 11 12 12 13 13 14 15 16 16 17 17 18 18 19 20 20 21 23 24 25 25 26 26 27
12 11 10 9 10 10 10 10 10 10 11 11 11 11 12 12 13 14 14 15 16 16 17 18 19 19 20 20 21 22 22 23 24 25 26 26 27 28
11 10 9 10 11 11 11 11 11 12 12 12 12 12 13 14 14 15 16 17 18 18 19 20 21 21 21 21 22 23 24 24 25 26 26 27 28 29
11 11 10 10 11 11 11 11 12 13 13 13 14 14 15 15 16 17 18 19 19 20 21 22 23 23 23 23 24 24 25 25 25 26 27 28 30 31
11 11 11 11 11 12 12 13 13 14 14 15 15 15 16 16 18 19 20 20 21 22 22 23 23 24 24 25 25 26 27 27 27 27 28 29 31 33
12 12 12 12 13 13 14 15 15 15 16 16 16 16 17 18 19 20 21 22 23 23 24 24 25 26 26 26 27 27 28 28 28 29 30 31 32 34
14 14 13 14 14 15 15 16 16 17 17 17 17 18 19 20 21 22 22 23 23 24 25 26 27 27 27 28 28 29 29 30 30 31 32 34 35 35
15 15 15 16 16 16 17 17 17 18 18 18 19 20 21 22 23 23 23 24 25 26 26 27 28 28 29 29 29 30 31 32 33 33 34 35 36 37
16 16 17 17 18 18 18 19 19 19 20 20 21 21 22 23 24 24 24 25 26 26 27 27 28 29 30 31 31 32 33 34 35 35 36 36 37 38
18 18 18 19 19 19 20 20 20 21 21 21 21 22 23 24 24 25 25 26 26 27 27 28 29 29 30 32 33 34 34 36 36 36 37 38 38 39
19 19 19 19 20 20 21 21 21 22 23 23 23 24 24 25 26 26 27 27 28 28 29 29 30 31 32 33 35 36 37 37 38 38 39 40 40 41
20 20 20 20 20 20 20 21 21 23 24 24 24 25 25 26 27 28 28 29 29 30 31 31 32 33 34 35 36 37 38 38 39 40 41 41 42 43
20 21 20 20 20 21 22 22 23 23 24 24 25 25 26 27 28 29 29 30 31 32 33 34 34 36 36 37 38 39 39 39 40 41 42 43 43 44
19 20 20 21 21 22 23 24 23 23 24 25 26 27 28 29 30 30 31 32 33 34 35 36 36 37 38 39 40 40 40 41 42 42 43 44 45 45
20 20 20 21 22 23 23 24 24 25 25 26 27 28 29 30 31 32 33 34 34 35 36 37 38 39 40 41 41 41 42 42 43 43 44 45 46 46
21 21 21 22 23 24 24 25 25 25 27 28 28 29 30 31 32 34 34 35 35 36 37 38 39 40 41 42 43 43 43 44 44 45 46 46 47 47
21 22 23 24 24 25 25 25 26 27 28 29 30 31 32 33 34 35 35 35 36 37 38 39 40 41 42 42 43 44 44 45 46 46 47 47 47 47
23 24 25 25 26 26 26 27 27 28 29 31 32 32 33 34 35 35 36 37 38 39 39 41 42 42 43 43 44 45 46 46 46 46 47 47 47 47
24 25 26 27 27 27 28 28 29 30 31 32 32 33 34 35 36 36 37 38 39 40 41 42 43 43 44 44 45 46 47 48 47 47 46 46 46 46
26 26 27 28 28 28 29 29 30 31 31 32 33 33 34 35 36 37 38 39 40 41 41 42 43 44 45 46 47 47 47 47 47 47 47 47 46 45
27 28 28 29 29 29 29 30 31 32 33 33 34 34 36 37 37 38 39 40 41 41 42 43 44 45 46 47 47 47 46 46 46 46 46 46 46 45
Wind_Direction
283 287 288 286 283 286 291 295 298 296 296 299 296 294 292 291 294 296 296 294 294 294 298 299 298 293 292 292 288 283 281 282 281 280 278 277 277 275
281 286 286 286 284 286 294 298 301 302 304 308 304 299 296 294 293 295 298 298 300 300 301 301 300 298 296 297 296 289 284 282 280 279 280 280 279 279
279 280 280 284 284 284 287 292 297 300 304 308 306 303 299 295 294 296 297 299 299 300 302 303 301 299 298 296 295 293 289 285 283 282 282 282 281 280
273 273 275 280 284 284 287 289 294 297 302 305 308 307 301 297 296 298 300 300 300 302 303 304 302 300 298 296 295 293 292 290 287 285 284 282 282 282
266 269 276 279 280 282 288 292 293 297 301 305 305 306 303 299 299 300 301 301 302 303 304 304 303 302 300 298 297 295 294 292 289 287 285 283 283 283
266 270 276 281 284 284 290 296 296 297 298 301 301 302 304 301 299 301 302 302 302 302 303 303 304 303 300 299 298 296 295 293 291 290 288 286 286 286
267 270 277 282 284 286 291 295 295 296 296 299 300 301 303 303 301 301 302 303 302 302 302 303 305 305 304 303 301 299 297 295 293 292 291 290 289 289
272 277 282 286 287 290 294 295 295 296 298 298 299 299 300 301 302 301 300 301 302 303 302 303 304 305 304 303 302 300 299 297 295 294 293 293 292 292
274 276 281 286 289 292 293 295 295 296 297 299 299 299 299 301 304 304 301 300 301 302 302 303 304 304 305 304 303 302 301 299 297 295 295 295 294 293
273 275 278 284 287 288 290 292 294 294 295 296 296 297 300 301 303 303 301 301 301 301 302 303 305 306 306 306 305 304 303 301 299 297 296 295 294 293
271 274 278 283 287 288 290 292 293 293 294 297 297 297 299 302 303 303 303 302 302 303 304 304 305 305 305 306 306 305 305 304 302 299 297 296 296 295
269 273 278 282 286 288 291 293 294 295 296 297 299 299 300 302 302 303 304 304 303 303 304 304 304 304 304 304 304 304 304 304 303 301 300 299 298 297
269 274 278 282 286 288 290 293 295 297 298 299 300 301 301 302 303 303 305 305 304 303 303 302 303 303 304 305 304 304 304 304 303 302 301 300 299 299
270 275 277 280 285 288 290 293 295 296 298 298 299 301 302 303 304 304 305 305 305 305 303 303 303 304 305 305 305 305 304 304 303 302 301 300 299 299
271 275 277 280 284 288 290 293 295 295 297 298 299 300 301 303 305 305 306 306 306 306 306 305 305 305 305 306 306 305 304 304 304 303 301 301 300 300
274 276 279 282 285 289 290 292 294 295 297 298 298 300 301 303 304 305 305 305 306 307 307 307 306 306 306 307 306 306 305 305 304 304 303 303 303 303
274 278 281 283 287 290 291 293 293 295 297 299 300 301 302 304 305 305 304 304 306 306 306 307 307 307 307 307 307 307 306 305 305 304 304 304 303 303
277 280 283 285 288 291 292 292 293 295 297 299 300 301 303 304 305 305 305 305 305 306 306 306 306 307 308 308 308 308 307 306 305 305 304 304 304 303
280 282 283 287 289 291 291 292 293 295 298 300 301 303 304 305 306 306 306 305 305 306 306 307 307 307 308 308 308 308 307 307 306 306 306 305 305 304
281 282 284 288 289 289 290 292 294 295 297 299 301 302 303 304 306 307 307 306 305 306 307 308 308 309 309 309 309 308 308 308 307 307 307 307 306 305
281 284 286 289 290 288 290 292 294 295 297 299 301 302 303 305 306 307 307 307 307 307 307 308 309 310 310 310 309 309 309 309 309 309 308 307 307 306
282 284 288 289 289 290 291 293 295 296 297 299 300 302 304 305 306 307 307 308 308 308 308 309 310 310 311 311 311 310 310 310 310 310 310 310 309 308
283 286 288 289 289 290 291 293 295 296 298 299 300 301 303 305 306 307 308 308 308 309 309 309 310 311 312 312 312 312 312 311 311 311 311 311 311 311
Height
5850 5849 5849 5848 5847 5846 5845 5844 5843 5841 5840 5837 5835 5833 5832 5832 5831 5830 5829 5828 5826 5825 5823 5822 5820 5818 5817 5815 5814 5813 5812 5811 5810 5809 5808 5807 5807 5806
5847 5846 5846 5845 5844 5843 5842 5841 5840 5838 5836 5834 5831 5830 5829 5828 5828 5827 5826 5824 5823 5821 5820 5818 5816 5814 5812 5811 5809 5807 5806 5805 5804 5803 5802 5801 5800 5799
5844 5843 5842 5842 5841 5840 5839 5838 5837 5835 5833 5831 5829 5827 5826 5825 5824 5824 5823 5821 5819 5818 5816 5814 5812 5810 5808 5806 5804 5802 5800 5798 5797 5796 5795 5794 5793 5791
5841 5840 5839 5839 5838 5837 5836 5835 5834 5833 5831 5829 5827 5825 5823 5822 5821 5820 5819 5817 5815 5814 5812 5809 5807 5805 5803 5800 5798 5796 5793 5791 5790 5788 5787 5786 5785 5783
5837 5837 5836 5835 5835 5834 5833 5832 5831 5829 5828 5826 5824 5823 5821 5820 5818 5817 5815 5813 5812 5809 5807 5805 5802 5799 5797 5794 5792 5789 5786 5784 5782 5780 5779 5778 5776 5775
5834 5834 5833 5833 5832 5831 5830 5829 5827 5826 5825 5823 5821 5820 5818 5816 5815 5813 5811 5809 5807 5805 5802 5799 5797 5794 5791 5789 5786 5783 5780 5777 5775 5773 5771 5769 5767 5765
5831 5830 5830 5829 5828 5828 5827 5826 5824 5823 5821 5820 5818 5816 5814 5812 5810 5809 5807 5804 5802 5800 5797 5794 5791 5788 5785 5782 5779 5776 5772 5770 5767 5765 5762 5760 5758 5756
5827 5827 5826 5825 5825 5824 5823 5822 5820 5819 5817 5816 5814 5812 5810 5808 5806 5804 5802 5799 5797 5795 5791 5788 5785 5782 5779 5775 5772 5769 5765 5762 5759 5756 5754 5751 5748 5745
5824 5823 5823 5822 5821 5820 5819 5818 5816 5814 5813 5812 5810 5808 5806 5804 5802 5799 5796 5794 5791 5788 5785 5782 5778 5775 5772 5768 5765 5761 5758 5754 5751 5748 5745 5741 5738 5735
5819 5819 5819 5818 5817 5816 5815 5813 5812 5810 5809 5807 5805 5803 5801 5798 5795 5793 5790 5787 5785 5782 5778 5775 5771 5768 5764 5761 5757 5753 5749 5745 5742 5738 5735 5731 5728 5724
5815 5815 5814 5813 5812 5811 5810 5809 5807 5805 5803 5801 5799 5797 5795 5792 5789 5786 5784 5781 5778 5775 5771 5768 5764 5761 5757 5753 5749 5745 5740 5736 5732 5728 5724 5721 5717 5713
5810 5810 5809 5808 5807 5806 5805 5803 5801 5800 5798 5796 5793 5791 5788 5786 5783 5780 5777 5774 5771 5768 5764 5760 5757 5753 5750 5745 5741 5736 5731 5727 5722 5718 5714 5710 5706 5702
5805 5804 5804 5803 5802 5801 5799 5797 5796 5794 5792 5789 5787 5785 5782 5779 5776 5773 5770 5767 5763 5760 5756 5753 5749 5745 5741 5737 5732 5727 5722 5717 5712 5708 5703 5698 5694 5690
5799 5799 5798 5797 5796 5795 5794 5792 5790 5788 5786 5783 5781 5778 5776 5772 5769 5766 5762 5759 5755 5752 5748 5744 5740 5736 5732 5727 5723 5718 5712 5707 5702 5697 5692 5687 5682 5677
5794 5793 5792 5792 5791 5789 5788 5786 5784 5782 5779 5777 5774 5772 5769 5766 5762 5759 5755 5751 5747 5743 5739 5735 5731 5726 5722 5717 5712 5707 5702 5696 5691 5685 5680 5675 5670 5665
5788 5787 5787 5786 5785 5783 5782 5780 5777 5775 5773 5770 5768 5765 5762 5759 5755 5751 5747 5743 5739 5735 5730 5725 5721 5716 5711 5706 5701 5696 5690 5685 5680 5674 5669 5663 5657 5652
5782 5782 5781 5780 5779 5777 5775 5773 5771 5768 5766 5763 5760 5758 5754 5751 5747 5743 5739 5735 5731 5726 5721 5716 5711 5705 5700 5695 5690 5684 5679 5673 5668 5662 5657 5651 5645 5639
5776 5776 5775 5774 5772 5770 5768 5766 5764 5762 5759 5756 5753 5750 5746 5743 5739 5735 5730 5726 5722 5717 5712 5707 5702 5696 5690 5684 5679 5673 5668 5662 5656 5650 5644 5638 5632 5626
5770 5770 5768 5767 5765 5764 5761 5759 5757 5754 5752 5748 5745 5742 5738 5734 5730 5726 5721 5717 5712 5707 5702 5697 5691 5685 5680 5674 5667 5661 5656 5650 5644 5637 5631 5625 5619 5613
5764 5763 5761 5760 5758 5756 5754 5752 5749 5747 5744 5740 5737 5733 5729 5725 5721 5717 5712 5707 5702 5697 5692 5686 5680 5674 5668 5663 5657 5650 5643 5637 5631 5625 5618 5612 5605 5598
5757 5755 5754 5752 5750 5748 5746 5744 5741 5738 5735 5732 5728 5724 5720 5716 5712 5707 5703 5698 5692 5687 5682 5676 5670 5663 5657 5651 5645 5638 5630 5623 5617 5611 5605 5599 5593 5586
5749 5748 5746 5745 5743 5740 5738 5736 5733 5730 5727 5723 5720 5716 5711 5707 5703 5698 5693 5688 5682 5677 5671 5665 5659 5652 5645 5639 5632 5626 5619 5611 5604 5597 5590 5584 5578 5572
5741 5740 5738 5736 5734 5732 5729 5727 5724 5721 5717 5714 5710 5706 5702 5698 5693 5688 5683 5677 5672 5666 5660 5654 5648 5641 5634 5627 5620 5614 5607 5600 5593 5586 5579 5571 5565 5558